Regional Weather Roundup
Issued by NWS

Home | Current Version | Previous Version | Graphics & Text | Print | Product List | Glossary On
Versions: 1 2 3 4 5 6 7 8 9 10 11 12 13 14 15 16 17 18 19 20 21 22 23 24 25 26 27
000
ASUS45 KBOI 301510
RWRID
WEATHER ROUNDUP FOR IDAHO
NATIONAL WEATHER SERVICE BOISE ID
900 AM MDT THU OCT 30 2014

NOTE: "FAIR" INDICATES FEW OR NO CLOUDS BELOW 12000 FEET
WITH NO SIGNIFICANT WEATHER AND/OR OBSTRUCTIONS TO VISIBILITY

IDZ012-014-301600-
SOUTHWEST IDAHO


CITY           SKY/WX    TMP DP  RH WIND       PRES   REMARKS
BOISE          PTCLDY    50  37  61 S13       30.14S
CALDWELL       PTCLDY    43  32  65 SE6       30.18R
MOUNTAIN HOME  PTCLDY    45  39  81 E12       30.16R
$$

IDZ016-017-301600-
SOUTHCENTRAL IDAHO


CITY           SKY/WX    TMP DP  RH WIND       PRES   REMARKS
BURLEY         CLEAR     39  31  72 NE8       30.22R WCI  33
JEROME         PTCLDY    44  33  65 NE21      30.20R
TWIN FALLS     PTCLDY    37  30  75 E7        30.20S WCI  32
$$

IDZ019>023-301600-
SOUTHEAST IDAHO


CITY           SKY/WX    TMP DP  RH WIND       PRES   REMARKS
IDAHO FALLS    MOCLDY    35  29  78 N10       30.30R WCI  27
POCATELLO      CLEAR     43  32  65 NE5       30.27S
REXBURG        CLOUDY    37  31  78 NE3       30.31R
$$

IDZ006-010-011-018-031-032-301600-
CENTRAL IDAHO MOUNTAINS


CITY           SKY/WX    TMP DP  RH WIND       PRES   REMARKS
MCCALL         PTCLDY    34  33  96 CALM      30.19R
HAILEY         PTCLDY    39  25  56 NW9       30.30R WCI  33
STANLEY          N/A     30  27  88 CALM      30.31R
SALMON         CLOUDY    37  36  93 CALM      30.28R
CHALLIS        PTCLDY    35  29  78 N3        30.29R
$$

IDZ002-004-006-007-026-301600-
NORTHERN IDAHO


CITY           SKY/WX    TMP DP  RH WIND       PRES   REMARKS
LEWISTON       CLOUDY    50  45  83 E3        30.10S
LOWELL           N/A     46  44  93 CALM      30.20S
COEUR D`ALENE  CLOUDY    46  43  87 NE9G16    30.13S
MULLAN PASS    FOG       34  34 100 SE12G20   30.19R VSB 1/4 WCI  25
$$



USA.gov is the U.S. government's official web portal to all federal, state and local government web resources and services.